Terminal Aerodrome Forecast
Issued by NWS Duluth, MN

Home | Current Version | Previous Version | Text Only | Print | Product List | Glossary On
Versions: 1 2 3 4 5 6 7 8 9 10 11 12 13 14 15 16 17 18 19 20 21 22 23 24 25 26 27 28 29 30 31
044
FTUS43 KDLH 261358 AAB
TAFDLH
TAF AMD
KDLH 261358Z 2614/2712 06006KT 4SM -FZRA BR OVC003
      TEMPO 2614/2618 1 1/2SM -RA BR OVC002
     FM262100 05004KT P6SM BKN008
     FM270000 05004KT 2SM BR OVC008
     FM270600 36003KT 1 1/2SM BR OVC010=

USA.gov is the U.S. government's official web portal to all federal, state and local government web resources and services.